Wind_Speed
14 14 16 18 20 24 26 27 28 33 34 34 36 36 37 36 36 36 35 34 33 33 34 34 34 35 35 36 35 35 34 34 34 33 31 29 28 27 27 27 27 27 27 28
9 10 12 14 15 17 20 21 24 29 31 32 34 34 35 35 35 34 33 33 32 32 33 34 34 35 36 36 36 36 36 35 34 33 31 29 28 27 27 26 25 25 26 27
5 7 7 8 9 11 13 15 18 22 25 27 29 28 31 31 31 31 31 31 31 32 32 33 34 35 36 37 37 36 36 35 34 33 31 29 28 27 27 26 26 25 26 26
5 5 6 7 8 7 9 14 16 18 18 18 22 17 25 27 27 28 29 29 30 31 32 34 34 35 35 36 36 36 35 35 34 34 32 31 30 29 28 28 27 27 26 27
7 7 7 7 9 9 11 13 14 16 16 16 18 16 19 25 24 26 27 27 28 29 31 32 33 34 34 34 35 35 35 36 36 35 34 32 31 30 29 28 28 28 27 27
8 9 9 9 10 11 11 12 12 12 12 12 15 13 15 20 20 22 23 24 25 26 27 29 31 32 33 34 35 35 36 37 36 36 35 33 32 32 31 30 30 30 29 29
7 8 9 9 8 11 10 9 9 10 9 11 15 13 16 17 17 18 19 21 23 24 26 27 29 32 33 34 36 37 37 37 37 37 36 34 34 33 33 32 32 31 31 31
4 5 8 8 8 9 10 9 9 10 10 12 16 15 17 17 17 18 20 21 23 25 27 29 31 33 34 36 37 37 38 38 38 38 37 36 36 35 35 35 34 33 33 32
4 6 9 9 9 9 9 9 11 12 12 13 13 19 19 19 20 21 22 23 25 27 29 31 33 34 36 37 38 39 39 39 39 39 39 38 38 38 37 37 36 36 35 34
5 6 9 9 10 9 10 11 12 13 14 13 15 18 22 21 22 23 26 28 30 32 33 34 35 37 38 39 41 41 42 42 43 42 42 42 41 40 39 39 38 37 37 36
7 7 9 11 11 12 14 14 14 15 17 17 17 21 25 25 26 29 30 32 34 36 37 39 40 41 42 43 44 45 45 46 46 46 46 45 45 44 43 42 41 39 38 37
8 9 10 12 13 14 15 17 18 19 20 22 22 27 25 28 30 32 33 35 36 38 39 41 42 43 44 46 47 48 49 50 50 51 50 50 49 49 48 46 44 42 41 39
10 11 12 13 18 19 19 19 20 21 23 24 25 31 30 32 34 35 36 37 38 39 41 42 44 45 47 48 49 51 52 53 54 54 54 54 54 53 52 50 48 46 44 42
12 13 14 14 16 20 21 22 23 24 25 27 29 33 35 36 38 38 39 40 41 42 43 45 47 48 50 52 53 55 56 57 58 59 59 59 59 59 57 55 53 50 47 45
14 15 16 17 19 20 21 23 24 26 28 30 32 35 38 39 40 41 42 43 44 45 47 49 51 53 55 57 59 61 62 63 64 65 65 65 64 63 61 59 57 54 51 49
15 16 17 18 20 22 23 24 26 28 30 32 35 38 38 40 41 42 44 46 47 49 52 54 57 59 61 62 64 66 68 69 70 70 70 70 69 68 66 64 62 59 55 52
17 18 19 20 22 25 26 27 29 31 32 35 37 39 40 42 43 45 48 50 53 55 58 60 63 64 66 68 70 72 73 74 74 74 74 73 73 71 70 68 65 62 59 55
18 20 21 23 25 26 28 29 31 33 34 36 38 40 42 45 47 50 53 56 58 61 63 65 67 69 71 72 73 73 73 73 73 73 72 72 72 71 69 67 65 62 60 58
20 22 23 24 26 30 29 31 33 35 37 38 41 44 46 49 52 55 59 61 63 65 67 69 71 71 70 70 69 68 66 65 64 64 64 63 63 62 61 61 61 60 59 57
22 23 25 26 27 30 33 34 36 39 41 43 46 49 52 54 57 59 63 65 67 69 70 70 69 67 64 61 59 57 55 53 52 51 51 50 50 50 51 51 52 53 54 53
24 24 25 26 29 31 33 35 38 41 45 48 50 53 56 59 62 65 67 68 69 69 67 64 61 57 53 51 49 48 47 45 44 43 42 41 40 40 41 41 43 44 46 48
25 26 27 28 31 34 36 38 41 44 47 50 53 57 60 63 66 67 68 68 66 63 59 55 52 49 46 45 44 42 41 40 39 38 37 36 35 35 35 34 35 36 39 42
26 27 29 30 33 36 39 42 44 47 50 53 57 60 64 66 68 68 66 62 58 54 51 48 46 43 42 42 42 41 39 39 38 37 35 33 32 32 32 32 31 32 33 36
28 30 31 33 36 39 42 44 47 51 54 58 61 64 67 68 66 63 59 55 52 49 46 44 43 42 41 41 41 40 39 39 37 35 33 32 31 30 30 29 29 29 30 32
31 33 35 37 39 42 44 48 51 54 58 61 64 66 67 65 61 58 54 50 47 45 43 43 42 41 41 41 39 39 39 38 36 34 33 32 31 30 29 28 29 30 31 31
34 36 38 41 43 46 48 51 55 58 61 64 66 66 64 61 57 53 49 46 44 43 42 42 42 42 42 41 39 38 38 37 35 34 33 32 31 29 29 28 29 29 29 29
Wind_Direction
272 266 258 253 247 246 248 247 247 250 252 253 255 258 260 262 264 266 267 268 269 270 272 274 277 279 282 285 287 290 291 294 295 295 296 296 295 294 295 296 296 295 294 293
279 270 264 258 254 252 251 250 252 255 255 256 258 261 264 265 266 267 268 267 267 268 270 273 275 278 281 284 286 288 291 293 295 294 294 295 296 296 296 297 298 297 296 295
275 275 276 272 270 265 259 254 255 260 264 265 266 270 271 270 270 269 268 268 269 270 271 273 275 277 280 283 286 288 291 293 294 294 295 295 296 297 298 297 298 298 298 299
289 290 290 291 286 282 277 269 269 271 272 271 271 267 277 275 273 272 271 270 270 271 272 273 275 277 280 283 286 288 290 291 292 294 295 296 297 297 297 296 296 297 299 300
287 290 292 289 285 284 276 282 281 281 279 276 279 271 269 278 276 274 274 273 273 273 274 276 277 280 282 283 284 285 288 289 290 292 294 295 295 296 296 295 295 296 297 299
294 294 287 285 289 289 291 294 298 301 298 286 277 274 266 277 280 278 278 277 276 276 277 278 279 280 281 282 282 284 286 288 290 291 293 293 293 294 294 294 294 295 296 298
304 302 296 290 296 300 301 305 311 307 300 284 287 283 269 283 285 283 281 280 279 279 278 278 278 278 279 281 282 284 286 287 289 290 291 291 292 292 292 291 292 292 294 296
311 298 291 292 286 282 290 291 287 279 277 278 294 290 286 288 287 285 283 281 279 278 278 278 279 279 280 281 283 284 286 287 288 289 290 290 290 290 290 290 290 290 291 293
291 282 299 302 301 300 301 293 283 288 290 289 284 286 289 287 287 285 283 281 280 280 280 280 280 280 281 282 282 283 285 286 287 288 289 289 289 289 288 288 289 289 289 290
298 294 300 310 311 309 304 301 298 295 291 288 289 292 290 292 288 285 283 283 282 282 282 281 280 280 281 281 281 282 283 284 285 286 287 287 288 288 288 288 288 288 287 288
310 312 312 313 314 310 309 307 304 300 296 294 289 284 290 293 290 288 286 285 285 284 283 282 281 281 281 281 281 282 282 283 283 284 284 284 285 286 286 286 287 286 286 286
316 319 316 311 311 309 308 308 307 305 303 302 301 293 297 294 292 291 290 289 287 285 284 283 282 282 281 281 281 282 282 282 282 282 283 283 283 283 284 284 284 284 284 284
319 320 323 321 315 314 313 312 310 308 307 306 305 297 303 300 299 297 295 293 291 289 287 286 285 283 282 282 282 282 282 281 281 281 281 281 281 282 282 282 282 282 282 282
319 319 315 309 301 305 311 313 312 311 309 307 304 300 303 303 302 300 298 296 293 292 290 288 287 285 284 283 283 282 282 281 281 280 280 279 279 279 279 279 279 279 279 280
318 317 314 312 310 311 312 312 311 309 308 306 303 302 303 303 302 301 299 297 295 294 293 291 289 287 286 285 284 283 282 280 279 279 278 277 276 276 277 277 277 277 277 276
318 318 317 315 313 312 312 313 311 310 309 307 305 304 305 303 302 302 300 299 297 296 294 292 291 289 287 285 283 282 281 280 279 278 277 277 276 275 275 275 274 274 273 272
323 323 322 320 317 315 316 316 313 312 311 309 308 307 307 306 305 304 303 301 300 298 296 294 292 290 288 286 285 283 282 281 280 279 278 277 276 275 274 273 271 270 269 268
327 326 324 322 319 318 318 316 314 312 312 310 309 308 308 307 307 306 304 303 301 300 298 297 295 293 291 290 288 286 285 284 282 281 280 278 276 275 273 271 268 267 265 264
331 328 326 325 322 319 320 318 316 314 313 312 311 311 310 309 309 308 307 306 304 302 301 299 298 297 295 294 293 291 290 288 286 284 282 280 277 275 272 269 266 263 261 259
331 329 327 325 322 320 320 319 318 316 316 316 315 314 313 312 311 311 309 308 306 305 303 302 301 300 300 299 297 296 295 294 292 289 287 284 280 276 273 269 265 261 257 253
331 329 326 323 321 320 320 321 320 319 318 318 317 316 315 315 314 313 311 310 309 307 306 305 305 304 304 302 301 300 300 298 296 293 290 287 283 279 276 272 266 260 254 248
332 330 329 327 325 325 324 321 321 320 319 319 318 318 317 317 316 315 313 312 311 310 310 309 308 307 306 305 304 303 302 300 298 296 294 290 285 280 277 274 267 260 252 246
334 332 330 329 327 324 324 324 323 323 322 322 321 321 320 319 318 316 315 315 314 313 312 311 310 309 308 307 306 305 303 301 299 298 296 291 288 283 278 273 267 259 253 246
334 334 332 331 330 329 328 327 326 326 325 325 325 324 322 321 320 318 318 317 316 315 314 313 312 311 309 308 306 304 302 301 300 298 295 291 287 283 278 272 266 259 253 248
336 335 334 333 332 331 330 329 329 328 328 328 327 326 324 323 322 321 321 320 319 318 316 315 314 313 311 310 307 304 303 301 298 296 293 290 287 282 276 271 266 260 256 249
336 336 335 334 333 333 332 331 330 330 330 330 329 328 327 326 325 325 324 323 322 320 318 317 316 315 313 310 308 305 303 301 299 296 293 290 285 280 275 270 266 261 256 248
Height
5874 5876 5876 5876 5877 5879 5880 5882 5883 5883 5884 5886 5886 5887 5887 5887 5888 5888 5888 5887 5887 5886 5884 5883 5881 5879 5877 5874 5871 5869 5866 5864 5862 5860 5858 5855 5853 5851 5848 5846 5843 5841 5839 5836
5873 5873 5873 5873 5873 5875 5876 5878 5879 5878 5878 5880 5880 5880 5880 5880 5880 5881 5880 5880 5880 5879 5877 5876 5874 5872 5870 5867 5864 5862 5860 5857 5855 5853 5851 5849 5846 5844 5841 5839 5836 5834 5832 5829
5872 5871 5871 5871 5871 5872 5873 5875 5874 5874 5874 5875 5875 5876 5874 5874 5873 5874 5873 5873 5873 5872 5870 5869 5867 5865 5862 5860 5857 5855 5853 5851 5849 5846 5844 5842 5839 5837 5834 5832 5830 5827 5825 5822
5870 5870 5870 5870 5870 5870 5872 5870 5870 5870 5871 5872 5871 5874 5869 5867 5867 5867 5866 5866 5865 5864 5863 5861 5859 5857 5855 5853 5850 5848 5846 5844 5841 5839 5837 5835 5832 5830 5827 5825 5823 5820 5818 5815
5869 5869 5869 5869 5868 5868 5868 5867 5866 5866 5866 5867 5866 5868 5868 5862 5861 5860 5859 5859 5858 5857 5855 5854 5851 5849 5847 5845 5843 5841 5838 5836 5834 5832 5830 5827 5825 5823 5820 5818 5815 5813 5810 5808
5868 5867 5866 5866 5865 5865 5864 5864 5863 5863 5863 5864 5862 5863 5863 5857 5856 5854 5853 5852 5851 5850 5848 5846 5844 5842 5840 5838 5836 5833 5831 5828 5826 5824 5822 5820 5818 5815 5813 5811 5808 5805 5803 5800
5867 5866 5865 5864 5864 5863 5862 5863 5864 5864 5864 5862 5858 5857 5856 5852 5851 5849 5848 5846 5845 5843 5841 5839 5837 5835 5833 5830 5828 5825 5823 5820 5818 5816 5814 5812 5810 5807 5805 5803 5800 5798 5795 5792
5867 5867 5864 5862 5862 5861 5860 5860 5861 5861 5861 5859 5855 5853 5851 5848 5846 5844 5842 5840 5839 5837 5835 5833 5830 5828 5825 5822 5820 5817 5815 5812 5809 5807 5805 5803 5801 5798 5796 5794 5792 5789 5787 5784
5866 5865 5862 5860 5859 5858 5858 5857 5856 5855 5855 5854 5853 5849 5846 5843 5841 5839 5837 5835 5832 5830 5828 5825 5822 5820 5817 5814 5811 5808 5806 5803 5800 5798 5796 5793 5791 5789 5787 5784 5782 5780 5777 5775
5863 5863 5861 5859 5857 5856 5856 5854 5853 5852 5851 5851 5850 5847 5843 5838 5836 5833 5831 5828 5825 5823 5820 5817 5814 5811 5808 5805 5802 5799 5796 5793 5790 5788 5785 5783 5780 5778 5776 5774 5771 5769 5767 5765
5861 5861 5861 5858 5856 5855 5853 5851 5849 5848 5847 5845 5845 5844 5837 5834 5830 5827 5824 5821 5817 5814 5811 5808 5804 5801 5798 5795 5791 5788 5785 5782 5779 5776 5774 5771 5769 5766 5764 5762 5760 5758 5756 5754
5860 5859 5858 5857 5854 5852 5850 5848 5846 5845 5842 5839 5837 5837 5831 5827 5823 5820 5816 5812 5809 5805 5801 5797 5793 5790 5786 5782 5779 5775 5772 5769 5766 5763 5760 5757 5755 5753 5751 5749 5748 5746 5745 5743
5858 5858 5856 5855 5853 5849 5846 5844 5842 5839 5837 5834 5831 5829 5824 5819 5815 5812 5807 5803 5799 5794 5790 5786 5781 5777 5773 5769 5765 5761 5757 5754 5751 5748 5744 5742 5740 5738 5736 5735 5734 5733 5732 5731
5856 5855 5854 5853 5849 5846 5842 5839 5836 5834 5831 5828 5825 5819 5814 5810 5806 5801 5796 5792 5787 5782 5778 5773 5768 5763 5759 5754 5750 5746 5742 5738 5734 5731 5727 5725 5723 5721 5720 5719 5719 5718 5718 5717
5853 5852 5849 5847 5844 5841 5838 5835 5832 5828 5825 5821 5817 5811 5806 5800 5795 5790 5785 5779 5774 5769 5763 5758 5753 5747 5742 5737 5732 5728 5723 5719 5715 5711 5708 5705 5703 5702 5701 5701 5701 5702 5702 5702
5850 5848 5846 5843 5840 5836 5833 5830 5826 5822 5818 5813 5808 5802 5797 5791 5785 5779 5773 5766 5760 5754 5748 5742 5736 5730 5724 5718 5713 5707 5702 5698 5693 5690 5686 5684 5682 5681 5681 5681 5681 5683 5684 5686
5847 5845 5842 5839 5835 5831 5828 5824 5819 5815 5810 5805 5799 5794 5786 5780 5774 5767 5759 5752 5745 5738 5731 5724 5717 5710 5703 5697 5690 5684 5679 5674 5669 5665 5662 5659 5658 5657 5657 5658 5660 5662 5664 5667
5844 5841 5838 5834 5831 5827 5825 5818 5813 5807 5802 5796 5790 5783 5776 5769 5762 5754 5745 5737 5729 5721 5712 5704 5695 5687 5680 5672 5665 5659 5653 5647 5643 5639 5636 5634 5632 5632 5632 5634 5636 5639 5643 5647
5840 5836 5833 5830 5825 5820 5817 5811 5804 5799 5793 5787 5780 5772 5764 5756 5748 5740 5729 5720 5711 5701 5692 5682 5672 5663 5655 5647 5640 5633 5628 5622 5617 5613 5610 5608 5607 5607 5608 5609 5612 5615 5620 5625
5836 5832 5829 5824 5819 5815 5810 5803 5796 5790 5782 5776 5768 5759 5751 5742 5733 5726 5713 5702 5692 5681 5670 5659 5650 5641 5632 5624 5617 5611 5606 5601 5597 5593 5590 5588 5586 5586 5586 5587 5589 5593 5597 5603
5832 5828 5824 5819 5813 5808 5803 5795 5789 5782 5775 5765 5756 5747 5737 5727 5717 5706 5695 5683 5671 5660 5649 5638 5629 5621 5614 5607 5600 5595 5590 5585 5581 5577 5574 5572 5570 5569 5569 5570 5571 5573 5577 5582
5828 5823 5818 5813 5808 5803 5795 5788 5781 5774 5764 5754 5744 5734 5723 5712 5700 5688 5675 5663 5652 5641 5631 5621 5613 5606 5599 5592 5586 5581 5576 5572 5567 5564 5561 5559 5557 5555 5555 5555 5556 5558 5561 5565
5823 5819 5813 5808 5803 5795 5786 5779 5771 5762 5752 5742 5731 5720 5708 5696 5683 5670 5658 5646 5635 5625 5616 5608 5600 5593 5587 5580 5574 5569 5564 5559 5555 5552 5549 5547 5545 5543 5542 5542 5543 5544 5547 5551
5819 5813 5807 5801 5794 5786 5778 5769 5761 5751 5740 5729 5717 5705 5692 5679 5666 5653 5642 5631 5621 5612 5603 5595 5588 5582 5576 5569 5563 5557 5552 5548 5544 5540 5537 5535 5533 5532 5531 5531 5532 5533 5536 5539
5813 5806 5800 5793 5786 5778 5770 5760 5750 5740 5729 5717 5705 5691 5676 5663 5650 5638 5628 5618 5608 5600 5592 5585 5577 5570 5564 5557 5551 5545 5540 5535 5532 5529 5526 5524 5522 5521 5520 5521 5521 5523 5525 5527
5806 5800 5793 5786 5778 5769 5761 5750 5740 5729 5718 5705 5691 5677 5663 5648 5636 5625 5616 5607 5598 5589 5582 5574 5566 5559 5552 5545 5539 5534 5528 5523 5520 5517 5514 5512 5511 5510 5509 5510 5511 5511 5514 5517